Location: Newark
(30.9503°N, 79.5686°E)
Time: 11:04:39
(UTC+00:00)

Hubble Space Telescope - Visible Passes

Search period start: 18 November 2019 00:00
Search period end: 28 November 2019 00:00
Orbit: 536 x 540 km, 28.5° (Epoch: 17 November)

Date Brightness Start Highest point End Pass type
(mag) Time Alt. Az. Time Alt. Az. Time Alt. Az.
18 Nov 1.8 13:29:11 10° SW 13:32:38 36° S 13:32:38 36° S visible
19 Nov 1.4 13:18:27 10° WSW 13:22:22 42° SSE 13:22:40 41° SSE visible
20 Nov 1.3 13:07:46 10° WSW 13:11:45 48° S 13:12:42 39° SE visible
21 Nov 1.2 12:57:07 10° WSW 13:01:08 53° S 13:02:43 32° ESE visible
22 Nov 1.1 12:46:28 10° WSW 12:50:32 57° S 12:52:45 25° ESE visible
22 Nov 3.9 14:27:33 10° W 14:28:05 13° W 14:28:05 13° W visible
23 Nov 1.1 12:35:52 10° WSW 12:39:55 60° S 12:42:48 18° E visible
23 Nov 3.5 14:16:59 10° W 14:18:08 18° W 14:18:08 18° W visible
24 Nov 1.1 12:25:16 10° W 12:29:20 62° S 12:32:53 13° E visible
24 Nov 3.0 14:06:25 10° W 14:08:14 23° WSW 14:08:14 23° WSW visible
25 Nov 1.1 12:14:40 10° W 12:18:44 62° S 12:22:49 10° ESE visible
25 Nov 2.6 13:55:54 10° W 13:58:22 29° WSW 13:58:22 29° WSW visible
26 Nov 1.2 12:04:05 10° W 12:08:08 60° S 12:12:12 10° ESE visible
26 Nov 2.3 13:45:23 10° W 13:48:35 32° SSW 13:48:35 32° SSW visible
27 Nov 2.3 13:34:55 10° WSW 13:38:27 28° SSW 13:38:55 27° S visible
